Home > Weather > Saint John > Past weeks

Flag for Canada Weather for the Past 2 Weeks in Saint John, New Brunswick, Canada

Now
10 °F

Passing clouds.


Feels Like: -4 °F
Forecast: 11 / 23 °F
Wind: 12 mph from Northeast

Location: Saint John

Current Time: Feb 8, 2016 at 6:17:11 AM

Latest Report: Feb 8, 2016 at 6:00 AM


Visibility: 15 mi

Pressure: 30.19 "Hg

Humidity: 72%

Dew point: 3 °F

Location of Saint JohnLocation

Historic Weather in Saint John — Graph

°F

Saint John Temperature Yesterday

Maximum temperature yesterday: 36 °F (at 10:00 AM)
Minimum temperature yesterday: 14 °F (at 11:00 PM)
Average temperature yesterday: 29 °F

High & Low Weather Summary for the Past Weeks

 TemperatureHumidityPressure
High48 °F (Feb 4, 5:00 AM)100% (Jan 29, 1:00 PM)30.53 "Hg (Jan 29, 1:00 PM)
Low3 °F (Jan 25, 11:00 PM)40% (Feb 2, 12:00 PM)29.26 "Hg (Jan 29, 4:00 PM)
Average29 °F79%29.96 "Hg
* Reported Jan 24 5:00 AM — Feb 8 5:00 AM, Saint John, Weather by CustomWeather, © 2016

Note: Actual official high and low records may vary slightly from our data, if they occured in-between our weather recording intervals... More about our weather records

Advertising

Saint John Weather History for the Previous 24 Hours

 ConditionsComfort  
Time TempWeatherWind HumidityBarometerVisibility
5:00 AM
Mon, Feb 8
9 °FClear.12 mph72%30.19 "Hg15 mi
4:00 AM9 °FClear.14 mph66%30.23 "Hg15 mi
3:00 AM10 °FClear.17 mph61%30.25 "Hg15 mi
2:00 AM9 °FClear.7 mph66%30.27 "Hg15 mi
1:00 AM12 °FClear.15 mph57%30.27 "Hg15 mi
12:00 AM12 °FClear.9 mph57%30.29 "Hg15 mi
11:00 PM
Sun, Feb 7
14 °FClear.9 mph52%30.27 "Hg15 mi
10:00 PM16 °FClear.16 mph48%30.24 "Hg15 mi
9:00 PM16 °FPassing clouds.13 mph53%30.25 "Hg15 mi
8:00 PM18 °FPassing clouds.12 mph53%30.23 "Hg15 mi
7:00 PM21 °FPassing clouds.15 mph63%30.22 "Hg15 mi
6:00 PM25 °FPassing clouds.15 mph50%30.21 "Hg15 mi
5:00 PM28 °FScattered clouds.10 mph51%30.17 "Hg15 mi
4:00 PM32 °FScattered clouds.13 mph51%30.13 "Hg15 mi
3:00 PM34 °FScattered clouds.10 mph56%30.11 "Hg15 mi
2:00 PM36 °FScattered clouds.12 mph52%30.05 "Hg15 mi
1:00 PM34 °FPassing clouds.13 mph65%30.06 "Hg15 mi
12:00 PM34 °FPartly sunny.10 mph75%30.06 "Hg15 mi
11:00 AM36 °FPassing clouds.14 mph65%30.05 "Hg15 mi
10:00 AM36 °FScattered clouds.13 mph70%30.03 "Hg15 mi
9:00 AM34 °FPartly sunny.8 mph75%30.04 "Hg15 mi
8:00 AM32 °FPartly sunny.12 mph80%30.03 "Hg15 mi
7:00 AM32 °FPartly cloudy.13 mph80%30.02 "Hg15 mi
6:00 AM32 °FPassing clouds.9 mph80%30.03 "Hg15 mi
Weather by CustomWeather, © 2016

See weather overviewHow to use our weather pages